Oxford, CT

9:00 AM EDT on May 24, 2017 (GMT -0400)
Waterbury-Oxford

Weather History for KOXC - February, 2014

Change the Weather History Date:

Friday, February 7, 2014

  Actual Average Record
Temperature  
Mean Temperature 20 °F -  
Max Temperature 28 °F 34 °F 51 °F (2005)
Min Temperature 12 °F 19 °F 8 °F (2007)
Degree Days  
Heating Degree Days 45    
Moisture  
Dew Point 5 °F    
Average Humidity 56    
Maximum Humidity 68    
Minimum Humidity 40    
Precipitation  
Precipitation 0.00 in - - ()
Sea Level Pressure  
Sea Level Pressure 30.20 in    
Wind  
Wind Speed 3 mph (West)    
Max Wind Speed 8 mph    
Max Gust Speed -    
Visibility 10 miles    
Events      
Averages and records for this station are not official NWS values.
T = Trace of Precipitation, MM = Missing Value Source: NWS Daily Summary

Daily Weather History Graph

Daily Weather History Graph

Search for Another Location

Airport or City:

Trip Planner

Search our weather history database for the weather conditions in past years. The results will help you decide how hot, cold, wet, or windy it might be!

Date:

Astronomy

Feb. 07, 2014 Rise Set
Actual Time 6:57 AM EST 5:16 PM EST
Civil Twilight 6:28 AM EST 5:45 PM EST
Nautical Twilight 5:56 AM EST 6:17 PM EST
Astronomical Twilight 5:23 AM EST 6:50 PM EST
Moon 11:25 AM EST (2/7) 1:11 AM EST (2/7)
Length of Visible Light 11h 16m
Length of Day
10h 18m
First Quarter, 59% of the Moon is Illuminated
Feb 7
First Quarter
Feb 14
Full
Feb 22
Last Quarter
Mar 1
New
Mar 8
First Quarter

Hourly Weather History & Observations

Time (EST) Temp. Windchill Dew Point Humidity Pressure Visibility Wind Dir Wind Speed Gust Speed Precip Events Conditions
12:15 AM 17.6 °F - 6.8 °F 63% 30.21 in 10.0 mi Calm Calm - N/A   Clear
12:35 AM 17.6 °F - 6.8 °F 63% 30.21 in 10.0 mi Calm Calm - N/A   Clear
12:55 AM 17.6 °F - 6.8 °F 63% 30.20 in 10.0 mi Calm Calm - N/A   Clear
1:15 AM 14.0 °F - 3.2 °F 62% 30.19 in 10.0 mi Calm Calm - N/A   Clear
1:35 AM 15.8 °F - 6.8 °F 68% 30.19 in 10.0 mi North - - N/A   Clear
1:55 AM 15.8 °F - 6.8 °F 68% 30.18 in 10.0 mi North - - N/A   Clear
2:15 AM 14.0 °F - 3.2 °F 62% 30.18 in 10.0 mi North - - N/A   Clear
2:35 AM 15.8 °F - 5.0 °F 62% 30.18 in 10.0 mi North - - N/A   Clear
2:55 AM 17.6 °F - 6.8 °F 63% 30.18 in 10.0 mi North - - N/A   Clear
3:15 AM 17.6 °F - 5.0 °F 58% 30.18 in 10.0 mi North - - N/A   Clear
3:35 AM 15.8 °F - 3.2 °F 58% 30.19 in 10.0 mi North - - N/A   Clear
3:55 AM 14.0 °F - 3.2 °F 62% 30.19 in 10.0 mi North - - N/A   Clear
4:15 AM 14.0 °F - 3.2 °F 62% 30.19 in 10.0 mi North - - N/A   Clear
4:35 AM 15.8 °F - 3.2 °F 58% 30.20 in 10.0 mi North - - N/A   Clear
4:55 AM 14.0 °F - 3.2 °F 62% 30.20 in 10.0 mi North - - N/A   Clear
5:15 AM 15.8 °F - 5.0 °F 62% 30.20 in 10.0 mi North - - N/A   Clear
5:35 AM 15.8 °F - 3.2 °F 58% 30.20 in 10.0 mi North - - N/A   Clear
5:52 AM 15.8 °F 5.1 °F 3.2 °F 58% 30.21 in 10.0 mi WNW 8.1 mph - N/A   Clear
6:50 AM 12.2 °F 1.7 °F 3.2 °F 67% 30.22 in 10.0 mi NW 6.9 mph - N/A   Clear
7:45 AM 12.2 °F - 1.4 °F 62% 30.24 in 10.0 mi Calm Calm - N/A   Scattered Clouds
8:50 AM 17.6 °F 10.7 °F 6.8 °F 63% 30.26 in 10.0 mi West 4.6 mph - N/A   Partly Cloudy
9:45 AM 21.2 °F - 6.8 °F 54% 30.28 in 10.0 mi North - - N/A   Clear
10:52 AM 23.0 °F 15.8 °F 6.8 °F 50% 30.26 in 10.0 mi West 5.8 mph - N/A   Clear
11:52 AM 24.8 °F 16.1 °F 6.8 °F 46% 30.24 in 10.0 mi West 8.1 mph - N/A   Clear
1:50 PM 28.4 °F 23.3 °F 6.8 °F 40% 30.19 in 10.0 mi WNW 4.6 mph - N/A   Clear
2:50 PM 28.4 °F 23.3 °F 6.8 °F 40% 30.18 in 10.0 mi WNW 4.6 mph - N/A   Clear
3:48 PM 28.4 °F 22.2 °F 6.8 °F 40% 30.18 in 10.0 mi NW 5.8 mph - N/A   Clear
4:46 PM 28.4 °F 21.2 °F 6.8 °F 40% 30.17 in 10.0 mi West 6.9 mph - N/A   Clear
5:45 PM 26.6 °F - 6.8 °F 43% 30.19 in 10.0 mi Calm Calm - N/A   Clear
6:50 PM 24.8 °F 17.9 °F 6.8 °F 46% 30.21 in 10.0 mi WSW 5.8 mph - N/A   Clear
7:50 PM 24.8 °F 17.9 °F 6.8 °F 46% 30.21 in 10.0 mi WSW 5.8 mph - N/A   Clear